Weather History for Beaufort, NC

Change the Weather History Date:

Saturday, November 12, 2011

  Actual Average Record
Temperature  
Mean Temperature 47 °F -  
Max Temperature 60 °F 68 °F 84 °F (1989)
Min Temperature 34 °F 45 °F 26 °F (1973)
Degree Days  
Heating Degree Days 18    
Moisture  
Dew Point 35 °F    
Average Humidity 60    
Maximum Humidity 92    
Minimum Humidity 36    
Precipitation  
Precipitation 0.00 in - - ()
Sea Level Pressure  
Sea Level Pressure 30.31 in    
Wind  
Wind Speed 4 mph (SW)    
Max Wind Speed 13 mph    
Max Gust Speed -    
Visibility 10 miles    
Events      
Averages and records for this station are not official NWS values.
T = Trace of Precipitation, MM = Missing Value Source: NWS Daily Summary

Daily Weather History Graph

Daily Weather History Graph

Search for Another Location

Airport:

Trip Planner

Search our weather history database for the weather conditions in past years. The results will help you decide how hot, cold, wet, or windy it might be!

Date:

Astronomy

Nov. 12, 2011 Rise Set
Actual Time 6:37 AM EST 5:03 PM EST
Civil Twilight 6:10 AM EST 5:30 PM EST
Nautical Twilight 5:40 AM EST 6:00 PM EST
Astronomical Twilight 5:10 AM EST 6:30 PM EST
Moon 6:22 PM EST (11/12) 8:13 AM EST (11/12)
Length of Visible Light 11h 19m
Length of Day
10h 26m
Full, 97% of the Moon is Illuminated
Nov 12
Full
Nov 18
Last Quarter
Nov 25
New
Dec 2
First Quarter
Dec 10
Full

Hourly Weather History & Observations

Time (EST) Temp. Windchill Dew Point Humidity Pressure Visibility Wind Dir Wind Speed Gust Speed Precip Events Conditions
12:56 AM 39.9 °F - 30.0 °F 68% 30.26 in 10.0 mi Calm Calm - N/A   Clear
1:56 AM 37.9 °F - 28.9 °F 70% 30.26 in 10.0 mi Calm Calm - N/A   Clear
2:56 AM 37.9 °F 35.5 °F 28.9 °F 70% 30.26 in 10.0 mi WNW 3.5 mph - N/A   Clear
3:56 AM 34.0 °F - 28.9 °F 82% 30.27 in 10.0 mi Calm Calm - N/A   Clear
4:56 AM 35.1 °F - 30.9 °F 85% 30.28 in 10.0 mi Calm Calm - N/A   Clear
5:56 AM 35.1 °F - 32.0 °F 89% 30.30 in 10.0 mi Calm Calm - N/A   Clear
6:56 AM 35.1 °F - 33.1 °F 92% 30.32 in 10.0 mi Calm Calm - N/A   Clear
8:56 AM 55.0 °F - 37.0 °F 51% 30.36 in 10.0 mi Calm Calm - N/A   Clear
9:56 AM 57.0 °F - 33.1 °F 40% 30.36 in 10.0 mi South 5.8 mph - N/A   Clear
10:56 AM 59.0 °F - 32.0 °F 36% 30.36 in 10.0 mi SW 12.7 mph - N/A   Clear
11:56 AM 59.0 °F - 33.1 °F 38% 30.35 in 10.0 mi SW 9.2 mph - N/A   Clear
12:56 PM 60.1 °F - 34.0 °F 38% 30.33 in 10.0 mi SSW 12.7 mph - N/A   Clear
1:56 PM 60.1 °F - 35.1 °F 39% 30.31 in 10.0 mi SSW 12.7 mph - N/A   Clear
2:56 PM 60.1 °F - 35.1 °F 39% 30.30 in 10.0 mi SW 12.7 mph - N/A   Clear
4:56 PM 55.9 °F - 37.9 °F 51% 30.30 in 10.0 mi SW 9.2 mph - N/A   Clear
5:56 PM 54.0 °F - 39.0 °F 57% 30.31 in 10.0 mi SW 5.8 mph - N/A   Clear
6:56 PM 55.9 °F - 37.0 °F 49% 30.32 in 10.0 mi SW 10.4 mph - N/A   Clear
7:56 PM 55.9 °F - 39.9 °F 55% 30.33 in 10.0 mi SW 8.1 mph - N/A   Clear
8:56 PM 54.0 °F - 42.1 °F 64% 30.33 in 10.0 mi SW 5.8 mph - N/A   Clear
11:56 PM 54.0 °F - 46.9 °F 77% 30.31 in 10.0 mi SSW 3.5 mph - N/A   Clear